Flag for Switzerland Weather past 2 weeks in Chur, Graubünden, Switzerland

Now
56 °F

Refreshingly cool.


Feels Like: 53 °F
Forecast: 45 / 64 °F
Wind: 12 mph from Northeast

Location: Chur-Ems


UV Index: 0 (Low)

Visibility: N/A


Pressure: 29.67 "Hg

Humidity: 57%

Dew point: 41 °F

Location of ChurLocation

Historic Weather in Chur

°F

Chur temperature yesterday

Maximum temperature yesterday: 57 °F (at 4:00 PM)
Minimum temperature yesterday: 36 °F (at 3:00 AM)
Average temperature yesterday: 44 °F

Past Weeks' High & Low Weather Summary

 TemperatureHumidityPressure
High73 °F (Apr 7, 3:00 PM)94% (Apr 13, 6:00 AM)30.37 "Hg (Apr 13, 6:00 AM)
Low33 °F (Apr 17, 6:00 AM)21% (Apr 17, 4:00 PM)29.70 "Hg (Apr 20, 11:00 AM)
Average51 °F60%30.08 "Hg
* Reported Apr 5 11:00 AM — Apr 20 11:00 AM, Chur, Weather by CustomWeather, © 2014

Note: Actual official high and low records may vary slightly from our data, if they occured in-between our weather recording intervals... More about our weather records

Advertising

Historic Weather Conditions — Data for Previous 24 hours

 ConditionsComfort  
Time TempWeatherWind HumidityBarometerVisibility
11:00 AM
Apr 20
52 °FScattered clouds.10 mph60%29.70 "Hg19 mi
10:00 AM50 °FCool.1 mph59%29.72 "HgN/A
9:00 AM46 °FCool.1 mph65%29.74 "HgN/A
8:00 AM38 °FScattered clouds.2 mph85%29.79 "Hg16 mi
7:00 AM39 °FChilly.2 mph82%29.79 "HgN/A
6:00 AM40 °FQuite cool.2 mph81%29.78 "HgN/A
5:00 AM41 °FClear.6 mph80%29.78 "Hg11 mi
4:00 AM43 °FQuite cool.9 mph76%29.78 "HgN/A
3:00 AM44 °FQuite cool.10 mph74%29.78 "HgN/A
2:00 AM43 °FClear.6 mph78%29.80 "Hg11 mi
1:00 AM43 °FQuite cool.8 mph80%29.81 "HgN/A
12:00 AM43 °FQuite cool.6 mph80%29.82 "HgN/A
11:00 PM
Apr 19
42 °FClear.1 mph83%29.84 "Hg19 mi
10:00 PM42 °FQuite cool.1 mph83%29.84 "HgN/A
9:00 PM46 °FCool.6 mph73%29.81 "HgN/A
8:00 PM48 °FPassing clouds.8 mph67%29.77 "Hg12 mi
7:00 PM51 °FCool.8 mph58%29.74 "HgN/A
6:00 PM56 °FRefreshingly cool.9 mph49%29.72 "HgN/A
5:00 PM56 °FScattered clouds.8 mph46%29.71 "Hg16 mi
4:00 PM57 °FRefreshingly cool.3 mph42%29.71 "HgN/A
3:00 PM55 °FCool.7 mph43%29.75 "HgN/A
2:00 PM53 °FScattered clouds.3 mph44%29.77 "Hg19 mi
1:00 PM51 °FCool.7 mph50%29.79 "HgN/A
12:00 PM48 °FCool.5 mph51%29.82 "HgN/A
Weather by CustomWeather, © 2014

See weather overview